CW8386 Weather Reports


Display with metric or nautical units.
time (UTC)temp
F
wind
direction
speed
MPH
gust
MPH
rain 1hr
in
rain 24hr
in
rain mn
in
humidity
%
barometer
mb
20260831023546 71 360 4.0 10.0 0.00 0.01 0.01 25 1014.8
20260831022525 72 360 6.0 10.0 0.00 0.01 0.01 26 1014.5
20260831022047 73 360 6.0 12.0 0.00 0.01 0.01 26 1014.4
20260831021608 74 360 7.0 18.0 0.00 0.01 0.01 25 1014.3
20260831021049 74 360 13.0 18.0 0.00 0.01 0.01 24 1014.3
20260831020605 75 360 13.0 24.0 0.00 0.01 0.01 24 1014.3
20260831020030 75 360 17.0 24.0 0.00 0.01 0.01 24 1014.2
20260831015609 75 360 9.0 19.0 0.00 0.01 0.01 24 1014.2
20260831015049 75 360 13.0 19.0 0.00 0.01 0.01 24 1014.1
20260831014549 75 360 11.0 17.0 0.00 0.01 0.01 23 1014.0
20260831014111 76 360 8.0 14.0 0.00 0.01 0.01 23 1014.0
20260831013549 77 360 8.0 14.0 0.00 0.01 0.01 22 1013.9
20260831013109 77 360 5.0 16.0 0.00 0.01 0.01 22 1013.9
20260831012528 78 360 6.0 16.0 0.00 0.01 0.01 22 1013.8
20260831012030 78 360 5.0 18.0 0.00 0.01 0.01 23 1013.8
20260831011553 79 360 8.0 18.0 0.00 0.01 0.01 22 1013.8
20260831011037 79 360 12.0 19.0 0.00 0.01 0.01 22 1013.7
20260831010557 79 360 14.0 23.0 0.00 0.01 0.01 21 1013.7
20260831010037 79 360 12.0 23.0 0.00 0.01 0.01 21 1013.7
20260831005539 80 360 13.0 22.0 0.00 0.01 0.01 21 1013.7
20260831005039 80 360 12.0 23.0 0.00 0.01 0.01 21 1013.5
20260831004540 80 360 13.0 24.0 0.00 0.01 0.01 22 1013.6
20260831004043 80 360 13.0 27.0 0.00 0.01 0.01 21 1013.6
20260831003544 81 360 17.0 29.0 0.00 0.01 0.01 20 1013.5
20260831003023 81 360 20.0 29.0 0.00 0.01 0.01 20 1013.6
20260831002525 81 360 13.0 25.0 0.00 0.01 0.01 20 1013.7
20260831001605 81 360 15.0 31.0 0.00 0.01 0.01 21 1013.7
20260831001026 81 360 18.0 31.0 0.00 0.01 0.01 22 1012.8
20260831000526 81 360 16.0 29.0 0.00 0.01 0.01 23 1012.8
20260831000027 81 360 16.0 28.0 0.00 0.01 0.01 23 1012.8
20260830235530 82 360 18.0 27.0 0.00 0.01 0.01 22 1012.8
20260830235031 82 360 15.0 23.0 0.00 0.01 0.01 22 1012.7
20260830234531 81 360 15.0 31.0 0.00 0.01 0.01 23 1012.8
20260830234034 81 360 15.0 31.0 0.00 0.01 0.01 23 1012.8
20260830233538 82 360 17.0 29.0 0.00 0.01 0.01 23 1012.7
20260830232554 81 360 21.0 32.0 0.00 0.01 0.01 23 1012.7
20260830232034 81 360 14.0 33.0 0.00 0.01 0.01 23 1012.7
20260830231538 82 360 16.0 33.0 0.00 0.01 0.01 23 1012.7
20260830231101 82 360 19.0 29.0 0.00 0.01 0.01 22 1012.7
20260830230618 82 360 17.0 30.0 0.00 0.01 0.01 23 1012.7
20260830230040 81 360 19.0 33.0 0.00 0.01 0.01 23 1012.7
20260830225618 81 360 16.0 33.0 0.00 0.01 0.01 23 1012.8
20260830225118 82 360 26.0 33.0 0.00 0.01 0.01 22 1012.8
20260830224537 82 360 19.0 35.0 0.00 0.01 0.01 23 1012.9
20260830224100 82 360 23.0 35.0 0.00 0.01 0.01 22 1012.8
20260830223058 83 360 20.0 32.0 0.00 0.01 0.01 22 1012.8
20260830222539 83 360 19.0 27.0 0.00 0.01 0.01 21 1012.8
20260830222025 83 360 16.0 22.0 0.00 0.01 0.01 22 1012.8
20260830221547 83 360 15.0 27.0 0.00 0.01 0.01 22 1013.0
20260830221028 83 360 17.0 27.0 0.00 0.01 0.01 22 1013.0
20260830220549 83 360 19.0 29.0 0.00 0.01 0.01 22 1013.0
20260830220029 82 360 19.0 29.0 0.00 0.01 0.01 23 1012.9
20260830215530 82 360 17.0 33.0 0.00 0.01 0.01 22 1012.9
20260830215032 81 360 19.0 33.0 0.00 0.01 0.01 22 1013.0
20260830214533 81 360 21.0 35.0 0.00 0.01 0.01 22 1013.0
20260830214056 81 360 22.0 35.0 0.00 0.01 0.01 22 1013.0
20260830213536 81 360 15.0 36.0 0.00 0.01 0.01 22 1013.0
20260830213036 82 360 27.0 36.0 0.00 0.01 0.01 22 1013.1
20260830212537 82 360 12.0 34.0 0.00 0.01 0.01 23 1013.1
20260830212059 82 360 23.0 33.0 0.00 0.01 0.01 23 1013.2
20260830211538 81 360 9.0 31.0 0.00 0.01 0.01 31 1013.3
20260830211041 82 360 22.0 31.0 0.00 0.01 0.01 29 1013.0
20260830210542 81 360 15.0 24.0 0.00 0.01 0.01 25 1013.4
20260830210027 81 360 11.0 26.0 0.00 0.01 0.01 25 1013.6
20260830205044 80 360 19.0 26.0 0.00 0.01 0.01 28 1013.6
20260830204524 80 360 11.0 18.0 0.00 0.01 0.01 29 1013.6
20260830204047 80 360 6.0 25.0 0.00 0.01 0.01 29 1013.6
20260830203531 80 360 5.0 17.0 0.00 0.01 0.01 30 1013.7
20260830202026 79 360 14.0 21.0 0.00 0.01 0.01 30 1013.9
20260830201527 79 360 4.0 36.0 0.00 0.01 0.01 31 1014.1
20260830201050 78 360 17.0 36.0 0.00 0.01 0.01 30 1014.2
20260830200529 78 360 20.0 37.0 0.00 0.01 0.01 30 1014.2
20260830200034 78 360 12.0 37.0 0.00 0.01 0.01 31 1014.2
20260830195556 78 360 19.0 39.0 0.00 0.01 0.01 31 1014.2
20260830195113 79 360 20.0 39.0 0.00 0.01 0.01 30 1014.2
20260830194614 79 360 10.0 33.0 0.00 0.01 0.01 30 1014.1
20260830194114 78 360 19.0 33.0 0.00 0.01 0.01 30 1014.2
20260830193532 78 360 22.0 33.0 0.00 0.01 0.01 31 1014.2
20260830193053 78 360 14.0 33.0 0.00 0.01 0.01 32 1014.2
20260830192613 77 360 9.0 28.0 0.00 0.01 0.01 32 1014.3
20260830192033 77 360 8.0 28.0 0.00 0.01 0.01 34 1014.4
20260830191534 77 360 9.0 30.0 0.00 0.01 0.01 32 1014.5
20260830191040 77 360 11.0 31.0 0.00 0.01 0.01 33 1014.6
20260830190601 76 360 13.0 31.0 0.00 0.01 0.01 33 1014.6
20260830190040 76 360 21.0 32.0 0.00 0.01 0.01 33 1014.6
20260830185542 76 360 14.0 29.0 0.00 0.01 0.01 33 1014.7
20260830185103 75 360 2.0 19.0 0.00 0.01 0.01 35 1014.7
20260830184544 74 360 8.0 19.0 0.00 0.01 0.01 36 1014.9
20260830184105 73 360 6.0 28.0 0.00 0.01 0.01 35 1014.8
20260830183523 73 360 19.0 28.0 0.00 0.01 0.01 36 1014.9
20260830182524 73 360 3.0 19.0 0.00 0.01 0.01 37 1014.9
20260830182025 72 360 10.0 19.0 0.00 0.01 0.01 38 1014.9
20260830181047 72 360 3.0 14.0 0.00 0.01 0.01 40 1014.9
20260830180527 72 360 5.0 18.0 0.00 0.01 0.01 40 1015.0
20260830180028 72 360 12.0 22.0 0.00 0.01 0.01 40 1015.1
20260830175609 72 360 8.0 30.0 0.00 0.01 0.01 40 1015.1
20260830175109 72 360 15.0 30.0 0.00 0.01 0.01 40 1015.4
20260830174528 72 360 16.0 33.0 0.00 0.01 0.01 39 1015.5
20260830174030 72 360 13.0 35.0 0.00 0.01 0.01 40 1015.4
20260830173048 72 360 13.0 36.0 0.00 0.01 0.01 39 1015.5
20260830172528 71 360 24.0 44.0 0.00 0.01 0.01 39 1015.2
20260830172029 71 360 20.0 44.0 0.00 0.01 0.01 41 1015.0
20260830171551 71 360 25.0 35.0 0.00 0.01 0.01 41 1014.7
20260830171032 70 360 21.0 45.0 0.00 0.01 0.01 44 1014.6
20260830170532 70 360 20.0 45.0 0.00 0.01 0.01 45 1014.5
20260830170034 70 360 31.0 42.0 0.00 0.01 0.01 46 1014.4
20260830165534 70 360 29.0 41.0 0.00 0.01 0.01 45 1014.4
20260830165058 69 360 28.0 38.0 0.00 0.01 0.01 46 1014.4
20260830164537 69 360 26.0 39.0 0.00 0.01 0.01 46 1014.6
20260830164040 70 360 25.0 42.0 0.00 0.01 0.01 45 1014.6
20260830163621 70 360 29.0 42.0 0.00 0.01 0.01 45 1014.4
20260830163100 70 360 15.0 26.0 0.00 0.01 0.01 44 1014.3
20260830162541 71 360 5.0 25.0 0.00 0.01 0.01 44 1014.5
20260830162102 71 360 7.0 21.0 0.00 0.01 0.01 43 1014.6
20260830161624 72 360 8.0 23.0 0.00 0.01 0.01 44 1014.6
20260830161023 73 360 15.0 23.0 0.00 0.01 0.01 42 1014.6
20260830160523 73 360 11.0 22.0 0.00 0.01 0.01 40 1014.5
20260830160025 74 360 6.0 16.0 0.00 0.01 0.01 40 1014.5
20260830155546 75 360 4.0 23.0 0.00 0.01 0.01 40 1014.4
20260830155047 75 360 19.0 23.0 0.00 0.01 0.01 38 1014.2
20260830154531 76 360 12.0 21.0 0.00 0.01 0.01 37 1014.2
20260830154034 76 360 8.0 18.0 0.00 0.01 0.01 37 1014.1
20260830153536 75 360 7.0 18.0 0.00 0.01 0.01 38 1014.1
20260830153037 75 360 6.0 15.0 0.00 0.01 0.01 40 1014.0
20260830152538 75 360 1.0 13.0 0.00 0.01 0.01 40 1014.0
20260830152100 74 360 8.0 12.0 0.00 0.01 0.01 40 1014.0
20260830151541 75 360 7.0 15.0 0.00 0.01 0.01 39 1014.0
20260830151124 74 360 9.0 16.0 0.00 0.01 0.01 39 1014.1
20260830150602 74 360 7.0 16.0 0.00 0.01 0.01 39 1014.1
20260830150023 74 360 10.0 16.0 0.00 0.01 0.01 39 1014.0
20260830145523 73 360 4.0 16.0 0.00 0.01 0.01 40 1014.0
20260830145046 73 360 4.0 16.0 0.00 0.01 0.01 40 1014.0
20260830144526 72 360 3.0 13.0 0.00 0.01 0.01 41 1014.1
20260830144048 71 360 1.0 12.0 0.00 0.01 0.01 43 1014.1
20260830143047 70 360 2.0 14.0 0.00 0.01 0.01 44 1013.9
20260830142527 70 360 0.0 9.0 0.00 0.01 0.01 45 1014.1
20260830142049 70 360 1.0 5.0 0.00 0.01 0.01 47 1014.1
20260830141529 70 360 1.0 13.0 0.00 0.01 0.01 47 1014.0
20260830141031 69 360 5.0 13.0 0.00 0.01 0.01 46 1013.9
20260830140551 69 360 0.0 6.0 0.00 0.01 0.01 49 1013.9
20260830140031 68 360 0.0 10.0 0.00 0.01 0.01 50 1013.8
20260830135553 68 360 2.0 10.0 0.00 0.01 0.01 51 1013.9
20260830135054 67 360 3.0 10.0 0.00 0.01 0.01 52 1013.8
20260830134535 67 360 5.0 10.0 0.00 0.01 0.01 52 1014.1
20260830134118 67 360 0.0 0.0 0.00 0.01 0.01 52 1014.2
20260830133535 66 360 0.0 0.0 0.00 0.01 0.01 54 1014.2
20260830133057 64 360 0.0 0.0 0.00 0.01 0.01 56 1014.2
20260830132558 63 360 0.0 2.0 0.00 0.01 0.01 60 1014.2
20260830132037 63 360 0.0 4.0 0.00 0.01 0.01 60 1014.1
20260830131542 62 360 2.0 4.0 0.00 0.01 0.01 61 1014.1
20260830131025 61 360 0.0 3.0 0.00 0.01 0.01 62 1014.0
20260830130606 61 360 0.0 4.0 0.00 0.01 0.01 63 1013.8
20260830130045 61 360 2.0 6.0 0.00 0.01 0.01 62 1013.7
20260830125526 61 360 0.0 6.0 0.00 0.01 0.01 62 1013.7
20260830125048 61 360 0.0 5.0 0.00 0.01 0.01 61 1013.6
20260830124528 62 360 2.0 5.0 0.00 0.01 0.01 60 1013.6
20260830124031 63 360 0.0 4.0 0.00 0.01 0.01 59 1013.5
20260830123613 64 360 1.0 4.0 0.00 0.01 0.01 57 1013.5
20260830123032 65 360 0.0 5.0 0.00 0.01 0.01 57 1013.5
20260830122554 65 360 0.0 5.0 0.00 0.01 0.01 55 1013.5
20260830122033 66 360 0.0 16.0 0.00 0.01 0.01 55 1013.5
20260830121615 65 360 6.0 16.0 0.00 0.01 0.01 54 1013.5
20260830121036 65 360 4.0 10.0 0.00 0.01 0.01 57 1013.5
20260830120618 65 360 3.0 9.0 0.00 0.01 0.01 56 1013.3
20260830120037 65 360 3.0 7.0 0.00 0.01 0.01 56 1013.3
20260830115539 66 360 3.0 7.0 0.00 0.01 0.01 55 1013.3
20260830115039 66 360 2.0 7.0 0.00 0.01 0.01 55 1013.5
20260830114541 66 360 4.0 8.0 0.00 0.01 0.01 54 1013.4
20260830113600 65 360 4.0 7.0 0.00 0.01 0.01 57 1013.3
20260830113040 65 360 1.0 6.0 0.00 0.01 0.01 58 1013.3
20260830112602 65 360 1.0 10.0 0.00 0.01 0.01 58 1013.4
20260830112022 65 360 4.0 12.0 0.00 0.01 0.01 58 1013.4
20260830111604 66 360 0.0 12.0 0.00 0.01 0.01 58 1013.5
20260830111024 66 360 1.0 6.0 0.00 0.01 0.01 57 1013.4
20260830110524 66 360 2.0 10.0 0.00 0.01 0.01 57 1013.5
20260830110106 66 360 1.0 17.0 0.00 0.01 0.01 58 1013.5
20260830105525 65 360 1.0 17.0 0.00 0.01 0.01 59 1013.4
20260830105048 65 360 6.0 15.0 0.00 0.01 0.01 60 1013.3
20260830104528 65 360 2.0 14.0 0.00 0.01 0.01 61 1013.3
20260830104031 65 360 5.0 15.0 0.00 0.01 0.01 61 1013.3
20260830103611 65 360 6.0 15.0 0.00 0.01 0.01 61 1013.4
20260830103030 66 360 3.0 11.0 0.00 0.01 0.01 61 1013.5
20260830102033 66 360 5.0 10.0 0.00 0.01 0.01 61 1013.6
20260830101533 65 360 3.0 12.0 0.00 0.01 0.01 63 1013.7
20260830101117 63 360 6.0 12.0 0.00 0.01 0.01 67 1013.7
20260830100535 61 360 0.0 0.0 0.01 0.01 0.01 72 1013.6
20260830100039 62 360 0.0 0.0 0.01 0.01 0.01 72 1013.6
20260830095600 62 360 0.0 0.0 0.01 0.01 0.01 71 1013.6
20260830095100 62 360 0.0 4.0 0.01 0.01 0.01 71 1013.5
20260830094540 62 360 0.0 4.0 0.01 0.01 0.01 72 1013.5
20260830094123 62 360 0.0 6.0 0.01 0.01 0.01 73 1013.4
20260830093542 62 360 2.0 6.0 0.01 0.01 0.01 73 1013.4
20260830093022 62 360 0.0 6.0 0.01 0.01 0.01 74 1013.5
20260830092523 62 360 1.0 6.0 0.01 0.01 0.01 74 1013.6
20260830092105 62 360 5.0 6.0 0.01 0.01 0.01 74 1013.6
20260830091545 62 360 4.0 5.0 0.01 0.01 0.01 73 1013.5
20260830091107 62 360 0.0 1.0 0.01 0.01 0.01 72 1013.3
20260830090526 62 360 0.0 0.0 0.00 0.00 0.00 72 1013.3
20260830090028 62 360 0.0 3.0 0.00 0.00 0.00 72 1013.3
20260830085549 62 360 0.0 3.0 0.00 0.00 0.00 72 1013.3
20260830085029 62 360 0.0 0.0 0.00 0.00 0.00 72 1013.3
20260830084551 62 360 0.0 0.0 0.00 0.00 0.00 72 1013.4
20260830084053 62 360 0.0 4.0 0.00 0.00 0.00 72 1013.4
20260830083613 62 360 0.0 5.0 0.00 0.00 0.00 71 1013.4
20260830083032 62 360 5.0 5.0 0.00 0.00 0.00 72 1013.6
20260830082534 62 360 3.0 4.0 0.00 0.00 0.00 71 1013.4
20260830081535 62 360 0.0 0.0 0.00 0.00 0.00 72 1013.4
20260830081039 62 360 0.0 1.0 0.00 0.00 0.00 73 1013.6
20260830080559 61 360 0.0 4.0 0.00 0.00 0.00 74 1013.6
20260830080040 61 360 1.0 4.0 0.00 0.00 0.00 74 1013.5
20260830075541 60 360 0.0 0.0 0.00 0.00 0.00 76 1013.5
20260830075044 60 360 0.0 2.0 0.00 0.00 0.00 76 1013.5
20260830074524 60 360 0.0 2.0 0.00 0.00 0.00 76 1013.6
20260830074107 59 360 0.0 0.0 0.00 0.00 0.00 76 1013.8
20260830073526 59 360 0.0 0.0 0.00 0.00 0.00 77 1013.7
20260830073027 59 360 0.0 0.0 0.00 0.00 0.00 77 1013.9
20260830072609 59 360 0.0 0.0 0.00 0.00 0.00 77 1013.8
20260830072049 58 360 0.0 6.0 0.00 0.00 0.00 77 1013.9
20260830071528 59 360 2.0 6.0 0.00 0.00 0.00 77 1013.9
20260830071030 59 360 0.0 3.0 0.00 0.00 0.00 77 1013.9
20260830070536 59 360 1.0 3.0 0.00 0.00 0.00 76 1014.0
20260830070037 60 360 0.0 0.0 0.00 0.00 0.00 76 1013.8
20260830065054 60 360 0.0 0.0 0.00 0.00 0.00 75 1014.0
20260830064054 60 360 1.0 5.0 0.00 0.00 0.00 76 1014.0
20260830063534 60 360 0.0 10.0 0.00 0.00 0.00 77 1013.9
20260830063115 59 360 4.0 10.0 0.00 0.00 0.00 78 1013.8
20260830062534 59 360 6.0 10.0 0.00 0.00 0.00 79 1013.8
20260830062036 59 360 3.0 6.0 0.00 0.00 0.00 79 1013.8
20260830061619 59 360 0.0 2.0 0.00 0.00 0.00 79 1013.8
20260830061100 59 360 0.0 0.0 0.00 0.00 0.00 79 1013.6
20260830060600 59 360 0.0 4.0 0.00 0.00 0.00 79 1013.7
20260830060100 59 360 2.0 4.0 0.00 0.00 0.00 79 1013.7
20260830055602 59 360 0.0 4.0 0.00 0.00 0.00 79 1013.8
20260830055041 59 360 2.0 4.0 0.00 0.00 0.00 79 1013.8
20260830054547 59 360 0.0 1.0 0.00 0.00 0.00 79 1013.8
20260830054125 59 360 0.0 1.0 0.00 0.00 0.00 78 1014.7
20260830053604 59 360 0.0 0.0 0.00 0.00 0.00 77 1014.7
20260830053028 60 360 0.0 0.0 0.00 0.00 0.00 76 1014.6
20260830052529 61 360 0.0 0.0 0.00 0.00 0.00 75 1014.5
20260830052111 61 360 0.0 0.0 0.00 0.00 0.00 75 1014.7
20260830051627 62 360 0.0 0.0 0.00 0.00 0.00 75 1014.7
20260830051031 62 360 0.0 0.0 0.00 0.00 0.00 75 1014.8
20260830050533 62 360 0.0 3.0 0.00 0.00 0.00 75 1014.7
20260830050033 62 360 0.0 3.0 0.00 0.00 0.00 74 1014.8
20260830045556 62 360 0.0 0.0 0.00 0.00 0.00 74 1015.0
20260830045037 62 360 0.0 6.0 0.00 0.00 0.00 73 1015.1
20260830044618 62 360 1.0 6.0 0.00 0.00 0.00 73 1015.2
20260830044038 63 360 0.0 5.0 0.00 0.00 0.00 73 1015.0
20260830043037 62 360 2.0 4.0 0.00 0.00 0.00 73 1014.8
20260830042538 62 360 0.0 4.0 0.00 0.00 0.00 74 1014.8
20260830042059 62 360 0.0 2.0 0.00 0.00 0.00 73 1014.8
20260830041059 63 360 0.0 4.0 0.00 0.00 0.00 72 1014.7
20260830040539 64 360 0.0 6.0 0.00 0.00 0.00 72 1014.5
20260830040101 64 360 4.0 6.0 0.00 0.00 0.00 72 1014.5
20260830035601 64 360 0.0 3.0 0.00 0.00 0.00 72 1014.6
20260830035042 64 360 0.0 4.0 0.00 0.00 0.00 72 1014.7
20260830034604 64 360 0.0 4.0 0.00 0.00 0.00 72 1014.5
20260830034045 64 360 0.0 6.0 0.00 0.00 0.00 72 1014.4
20260830033605 64 360 0.0 6.0 0.00 0.00 0.00 72 1014.4
20260830033025 64 360 1.0 5.0 0.00 0.00 0.00 71 1014.5
20260830032526 65 360 1.0 5.0 0.00 0.00 0.00 71 1014.6
20260830032048 65 360 0.0 3.0 0.00 0.00 0.00 71 1014.6
20260830031549 65 360 0.0 2.0 0.00 0.00 0.00 70 1014.6
20260830031051 64 360 0.0 2.0 0.00 0.00 0.00 71 1014.5
20260830030551 64 360 0.0 4.0 0.00 0.00 0.00 71 1014.4
20260830030032 64 360 2.0 6.0 0.00 0.00 0.00 72 1014.5
20260830025533 64 360 2.0 6.0 0.00 0.00 0.00 71 1014.5
20260830025034 65 360 4.0 6.0 0.00 0.00 0.00 71 1014.4
20260830024555 65 225 4.0 6.0 0.00 0.00 0.00 70 1014.3
20260830024035 65 360 4.0 6.0 0.00 0.00 0.00 69 1014.4